www.pogodaiklimat.ru

Погода и климат >> Архив погоды >> Россия >> Ставропольский край >> Новоалександровск


ПОГОДА в Новоалександровске

  • Прогноз погоды в Новоалександровске
  • Монитор погоды в Новоалександровске

АРХИВ ПОГОДЫ в Новоалександровске

Время (UTC), дата Ветер
(напр.,м/с)
 
Видим.   Явления Облачность Т
(С)
Тd
(С)
f
(%)
Тe
(С)
Тes
(С)
Комфортность P
(гПа)
Po
(гПа)
Тmin
(С)
Tmax
(С)
R
(мм)
R24
(мм)
S
(см)
15 14.08 В 3
{10}
20 км ясно +31.8 -0.1 13 +29 +29 жарко 1010.9 998.5 +33.2
18 14.08 В 2 20 км ясно +26.0 +1.5 20 +24 +24 комфорт 1011.5 998.8
21 14.08 В 1 20 км ясно +21.3 +2.0 28 +21 +21 комфорт 1010.9 998.0
00 15.08 В 2 20 км ясно +19.8 +1.8 30 +21 +21 комфорт 1010.2 997.2
03 15.08 В 2 20 км ясно +19.8 +1.8 30 +21 +21 комфорт 1010.2 997.0 +18.6
06 15.08 В 3 20 км ясно +27.6 -2.8 13 +25 +32 комфорт 1009.4 996.8
09 15.08 В 4-10
{12}
20 км ясно +33.3 -0.8 11 +30 +40 жарко 1008.2 995.9
12 15.08 В 4
{11}
20 км ясно +36.2 +2.3 12 +33 +40 жарко 1006.4 994.2
15 15.08 В 3
{12}
20 км ясно +34.0 +4.9 16 +31 +32 жарко 1006.0 993.7 +36.2
18 15.08 В 2 20 км ясно +27.6 +3.5 21 +26 +26 жарко 1007.2 994.7
21 15.08 В 2 20 км ясно +23.4 +5.3 31 +24 +24 комфорт 1007.4 994.7
00 16.08 В 1 20 км ясно +18.4 +8.3 52 +20 +20 1007.9 995.0
03 16.08 В 1 20 км 3/0
[Ci fib]
+18.3 +8.9 54 +20 +20 1007.9 995.0 +18.2
06 16.08 В 2 20 км 8/0 2000 м
[Ac As Cc]
+25.8 +13.6 47 +28 +34 жарко 1007.3 994.7
09 16.08 З 1 20 км 8/3 600 м
[Cu hum Cc]
+30.8 +14.1 36 +32 +43 жарко 1006.4 994.0
12 16.08 З 1 20 км 9/6 600 м
[Cb cap Cs]
+31.9 +14.4 35 +34 +38 душно 1005.5 993.2
15 16.08 С 3 20 км 9/8 600 м
[Sc diur, vesp Cs]
+29.8 +14.9 40 +32 +32 душно 1003.4 991.1 +32.2
18 16.08 З 1 20 км 9/4 600 м
[Sc diur, vesp Cs]
+26.2 +16.8 56 +30 +30 душно 1005.9 993.4
21 16.08 В 2 20 км 9/6 600 м
[Sc diur, vesp Cs]
+25.6 +16.0 55 +29 +29 душно 1006.5 994.0
00 17.08 З 1 20 км 6/3 600 м
[Sc diur, vesp Ci sp]
+23.4 +16.7 66 +28 +28 душно 1006.0 993.4
03 17.08 З 2 10 км гроза, ливневой дождь 9/9 600 м
[Cb cap]
+20.6 +17.9 85 +25 +25 комфорт 1007.1 994.3 +20.6 2
06 17.08 ЮЗ 2 20 км {гроза, ливн. осадки} 9/9 600 м
[Cb cap]
+21.3 +19.4 89 +26 +27 душно 1008.9 996.2 +20.1
09 17.08 З 1 20 км {гроза, ливн. осадки} 9/8 600 м
[Cu med, cong Ci fib]
+26.1 +19.3 66 +31 +35 очень
душно
1008.8 996.3
12 17.08 З 2 20 км {гроза, ливн. осадки} 9/3 600 м
[Cu med, cong Cc]
+27.5 +17.8 55 +32 +38 очень
душно
1008.7 996.2
15 17.08 З 2 20 км 8/3 600 м
[Cu hum Ac trans Cc]
+27.5 +17.1 53 +31 +32 душно 1009.1 996.6 +28.5 4
18 17.08 штиль 0 20 км 3/0 2000 м
[Ac lent]
+22.7 +18.9 79 +29 +29 очень
душно
1009.8 997.1
21 17.08 ЮЗ 1 20 км 9/9 600 м
[Cb cap]
+22.1 +19.5 85 +28 +28 душно 1009.7 997.0
00 18.08 штиль 0 20 км 9/5 600 м
[Sc Cc]
+20.8 +19.2 91 +25 +25 комфорт 1009.1 996.4
03 18.08 З 1 20 км 9/9 600 м
[Sc]
+20.7 +18.5 87 +26 +26 душно 1009.5 996.7 +20.6
06 18.08 СЗ 1 20 км в посл. час гроза {ливн. осадки} 10/8 600 м
[Cb cap As op]
+20.7 +19.2 91 +26 +26 душно 1009.3 996.6 +20.5
09 18.08 СЗ 1 20 км гроза без осадков {ливн. осадки} 9/6 600 м
[Cb cap Ac trans Ci fib]
+25.2 +20.6 76 +31 +36 очень
душно
1009.1 996.5
12 18.08 СЗ 2 20 км {гроза, ливн. осадки} 8/8 600 м
[Cu hum Ci fib]
+28.5 +19.0 56 +34 +36 очень
душно
1009.0 996.6
15 18.08 С 2 20 км 1/0
[Ci fib]
+28.9 +18.2 52 +34 +34 очень
душно
1009.3 996.8 +29.5 2
18 18.08 З 2 20 км 8/0 2000 м
[Ac cast]
+24.8 +19.2 71 +30 +30 душно 1011.0 998.4
21 18.08 З 2 20 км 4/0 2000 м
[Ac lent Ci fib]
+22.8 +19.4 81 +29 +29 очень
душно
1012.2 999.5
00 19.08 ЮЗ 1 20 км 10/10 600 м
[Sc]
+21.9 +19.9 88 +28 +28 душно 1012.7 999.9
03 19.08 штиль 0 50 км ?/? +21.6 +20.2 92 +27 +27 душно 1013.5 1000.8 +21.4
06 19.08 З 2 20 км 10/10 600 м
[Sc]
+23.5 +19.5 78 +29 +29 душно 1015.2 1002.5 +21.4
09 19.08 СЗ 1 20 км 8/0
[Cs]
+29.1 +17.5 50 +33 +48 очень
душно
1014.7 1002.2
12 19.08 СВ 1 20 км 3/3 600 м
[Cu hum]
+32.7 +17.4 40 +36 +44 очень
душно
1013.8 1001.5
15 19.08 С 1 20 км 1/1 600 м
[Cu hum]
+32.0 +15.4 37 +34 +35 душно 1014.1 1001.7 +33.6
18 19.08 С 2 20 км ясно +26.9 +17.0 55 +31 +31 душно 1015.5 1002.8
21 19.08 СВ 1 20 км ясно +24.4 +16.6 62 +28 +28 душно 1015.6 1002.9
00 20.08 СВ 1 20 км ясно +21.6 +16.6 73 +25 +25 комфорт 1016.1 1003.2
03 20.08 штиль 0 20 км ясно +20.5 +16.6 78 +23 +24 комфорт 1016.8 1003.9 +19.7
06 20.08 СВ 1 20 км ясно +27.6 +16.2 50 +31 +40 душно 1016.7 1004.1
09 20.08 СВ 4 20 км 8/0
[Cc]
+33.3 +12.2 28 +34 +42 очень
жарко
1015.6 1003.2
12 20.08 СВ 3 20 км 4/0 2000 м
[Ac cast Cc]
+35.2 +11.3 24 +35 +41 очень
жарко
1014.3 1002.0
15 20.08 СВ 2 20 км 10/3 600 м
[Sc Ac As Cs]
+33.2 +9.4 23 +32 +32 жарко 1013.7 1001.3 +35.7
18 20.08 штиль 0 20 км 9/0 2000 м
[Ac As Cs]
+26.2 +14.1 47 +28 +28 жарко 1014.6 1001.9
21 20.08 штиль 0 20 км 9/0
[Cs]
+23.0 +14.3 58 +27 +27 душно 1014.4 1001.6
00 21.08 штиль 0 20 км 9/0
[Cc]
+22.1 +16.2 69 +26 +26 душно 1013.6 1000.8
03 21.08 Ю 1 20 км 9/0 2000 м
[Ac lent Cc]
+21.4 +14.4 64 +24 +24 комфорт 1014.2 1001.4 +21.0
06 21.08 СВ 2 20 км 8/0
[Cc]
+29.2 +13.1 37 +31 +37 жарко 1013.9 1001.4
09 21.08 В 3 20 км 9/0
[Cs]
+35.6 +6.1 16 +33 +43 жарко 1012.5 1000.2
12 21.08 В 3 20 км 8/0
[Cc]
+35.4 +2.8 13 +32 +39 жарко 1011.0 998.8

 

Местоположение метеостанции Новоалександровск (Ставропольский край, Россия): широта 45.50 долгота 41.20 высота над уровнем моря 110 м.

В архиве по умолчанию представлена погода в Новоалександровске за последнюю неделю. Архивные данные за месяц целиком и за предыдущие месяцы, начиная с января 2011 года, Вы можете получить, выбрав интересующий диапазон дат из раскрывающегося списка и нажав кнопку "Ввод!".


*Определитесь, кто Вы:
робот инопланетянин человек

Внимание! Время в таблицах - всемирное. Для получения местного времени необходимо прибавить поправку, которая равна 3 ч.

Смотрите также архив погоды в соседних городах и на ближайших метеорологических станциях:

Погода в Изобильном (Ставропольский край, Россия) (42 км)
Погода в Красногвардейском (Ставропольский край, Россия) (43 км)
Погода в Кропоткине (Краснодарский край, Россия) (50 км)
Погода в Армавире (Краснодарский край, Россия) (58 км)
Погода в Белой Глине (Краснодарский край, Россия) (69 км)
Погода в Ставрополе (Ставропольский край, Россия) (81 км)
Погода в Городовиковске (Калмыкия, Россия) (87 км)
Погода в Тихорецке (Краснодарский край, Россия) (95 км)
Погода в Дондуковской (Адыгея, Россия) (98 км)
Погода в Лабинске (Краснодарский край, Россия) (99 км)

Пояснения к столбцам:

Ветер - указаны скорость ветра в м/с - средняя за 10 мин, порывы в срок и между сроками (в фигурных скобках) и направление, откуда дует ветер: С - северный, СВ - северо-восточный, В - восточный, ЮВ - юго-восточный, Ю - южный, ЮЗ - юго-западный, З - западный, СЗ - северо-западный.
Видимость - горизонтальная дальность видимости в метрах или километрах. При видимости от 1 до 10 км при отсутствии осадков обычно наблюдается дымка, при ухудшении видимости до 1 км и менее - туман. В сухую погоду видимость может ухудшаться дымом, пылью или мглою.
Явления - указаны атмосферные явления, наблюдавшиеся в срок или в последний час перед сроком; фигурными скобками обозначены явления, наблюдавшиеся между сроками (за 1-3 часа до срока); квадратными скобками обозначены град или гололедные отложения с указанием их диаметра в мм.
Облачность - указаны через наклонную черту общая и нижняя облачность в баллах и высота нижней границы облаков в метрах; квадратными скобками обозначены формы облаков: Ci - перистые, Cs - перисто-слоистые, Cc - перисто-кучевые, Ac - высококучевые, As - высокослоистые, Sc - слоисто-кучевые, Ns - слоисто-дождевые, Cu - кучевые, Cb - кучево-дождевые. Подробнее классификацию облаков см. в Атласе облаков (PDF).
T - Температура воздуха - температура, измеренная на высоте 2 м над землей.
Td - Температура точки росы - температура, при понижении до которой содержащийся в воздухе водяной пар достигнет насыщения.
f - Относительная влажность воздуха - влажноcть воздуха, измеренная на высоте 2 м над землей.
Te - Эффективная температура - температура, которую ощущает одетый по сезону человек в тени. Характеристика душности погоды. При расчете учитывается влияние влажности воздуха и скорости ветра на теплоощущения человека.
Tes - Эффективная температура на солнце - температура, которую ощущает человек, с поправкой на солнечный нагрев. Характеристика знойности погоды. Зависит от высоты солнца над горизонтом, облачности и скорости ветра. Ночью, в пасмурную погоду, а также при ветре 12 м/с и более поправка равна нулю.
P - Атмосферное давление - приведенное к уровню моря атмосферное давление.
Po - Атмосферное давление - измеренное на уровне метеостанции атмосферное давление.
Tmin - Минимальная температура - минимум температуры воздуха на высоте 2 м над землей.
Tmax - Максимальная температура - максимум температуры воздуха на высоте 2 м над землей.
R - Количество осадков - Количество выпавших осадков за период времени, мм. При наведении курсора мыши на число - период времени, за который выпало указанное количество осадков.
R24 - Количество осадков - Количество выпавших осадков за 24 часа, мм.
S - Снежный покров - Высота снежного покрова, см. При наведении курсора мыши на число - состояние снежного покрова и степень покрытия местности в баллах.